Location: ????????
(55.0559°N, 39.1270°E)
Time: 08:29:09
(UTC+00:00)

Cosmos 2237 Rocket - Pass Details

Date: 15 November 2025
Orbit: 835 x 847 km, 71.0° (Epoch: 14 December)

Event Time Altitude Azimuth Distance (km) Brightness Sun altitude
Exits shadow 01:55:38 45° 200° (SSW) 1,133 2.6 -25.4°
Maximum altitude 01:57:26 81° 120° (ESE) 859 2.2 -25.2°
Drops below altitude 10° 02:03:06 10° 35° (NE) 2,466 5.1 -24.3°
Sets 02:05:33 0° 34° (NE) 3,402 5.8 -24.0°
